Terminal Aerodrome Forecast
Issued by NWS Charleston, WV

Current Version | Previous Version | Graphics & Text | Print | Product List | Glossary On
Versions: 1 2 3 4 5 6 7 8 9 10 11 12 13 14 15 16 17 18 19 20 21 22 23 24 25 26 27 28 29
000
FTUS41 KRLX 040645 AAA
TAFBKW
TAF AMD
KBKW 040645Z 0407/0506 00000KT 5SM BR SCT040
      TEMPO 0407/0411 6SM BR
     FM041300 02004KT P6SM SCT025
     FM041600 02004KT P6SM VCTS BKN025CB
     FM041800 36005KT P6SM VCTS BKN035CB
     FM050400 00000KT P6SM BKN035=

USA.gov is the U.S. government's official web portal to all federal, state and local government web resources and services.